Wetterdaten: Freitag, 24.11.2017
Datum Zeit Temp. Auen Feucht Auen Luftdruck Regen Richtung Richtung Windben
24.11.2017 00:00 0,5 C 94 % 1019,6 hPa 0,0 mm W 272 4,8 km/h (1 Bft)
24.11.2017 00:05 0,8 C 94 % 1019,6 hPa 0,0 mm W 271 3,2 km/h (1 Bft)
24.11.2017 00:10 0,6 C 94 % 1019,7 hPa 0,0 mm W 271 3,2 km/h (1 Bft)
24.11.2017 00:15 0,5 C 94 % 1019,7 hPa 0,0 mm W 272 4,8 km/h (1 Bft)
24.11.2017 00:20 0,6 C 94 % 1019,7 hPa 0,0 mm W 271 4,8 km/h (1 Bft)
24.11.2017 00:25 0,8 C 94 % 1019,6 hPa 0,0 mm W 272 4,8 km/h (1 Bft)
24.11.2017 00:30 0,9 C 94 % 1019,6 hPa 0,0 mm W 271 3,2 km/h (1 Bft)
24.11.2017 00:35 0,8 C 94 % 1019,6 hPa 0,0 mm W 271 0,0 km/h (0 Bft)
24.11.2017 00:40 0,8 C 94 % 1019,5 hPa 0,0 mm W 271 0,0 km/h (0 Bft)
24.11.2017 00:45 0,9 C 94 % 1019,6 hPa 0,0 mm W 271 1,6 km/h (1 Bft)
24.11.2017 00:50 1,0 C 94 % 1019,4 hPa 0,0 mm W 272 3,2 km/h (1 Bft)
24.11.2017 00:55 1,2 C 94 % 1019,4 hPa 0,0 mm W 271 4,8 km/h (1 Bft)
24.11.2017 01:00 1,2 C 94 % 1019,4 hPa 0,0 mm W 271 3,2 km/h (1 Bft)
24.11.2017 01:05 1,2 C 94 % 1019,3 hPa 0,0 mm W 271 0,0 km/h (0 Bft)
24.11.2017 01:10 1,2 C 94 % 1019,3 hPa 0,0 mm W 272 4,8 km/h (1 Bft)
24.11.2017 01:15 1,3 C 94 % 1019,4 hPa 0,0 mm W 271 1,6 km/h (1 Bft)
24.11.2017 01:20 1,3 C 94 % 1019,4 hPa 0,0 mm W 271 4,8 km/h (1 Bft)
24.11.2017 01:25 1,3 C 94 % 1019,4 hPa 0,0 mm W 271 3,2 km/h (1 Bft)
24.11.2017 01:30 1,3 C 94 % 1019,4 hPa 0,0 mm W 272 1,6 km/h (1 Bft)
24.11.2017 01:35 1,4 C 94 % 1019,4 hPa 0,0 mm W 271 3,2 km/h (1 Bft)
24.11.2017 01:40 1,4 C 94 % 1019,4 hPa 0,0 mm W 271 3,2 km/h (1 Bft)
24.11.2017 01:45 1,4 C 94 % 1019,5 hPa 0,0 mm W 271 3,2 km/h (1 Bft)
24.11.2017 01:50 1,5 C 94 % 1019,6 hPa 0,0 mm W 272 0,0 km/h (0 Bft)
24.11.2017 01:55 1,4 C 94 % 1019,6 hPa 0,0 mm W 271 0,0 km/h (0 Bft)
24.11.2017 02:00 1,3 C 94 % 1019,6 hPa 0,0 mm W 271 4,8 km/h (1 Bft)
24.11.2017 02:05 1,2 C 94 % 1019,6 hPa 0,0 mm W 271 1,6 km/h (1 Bft)
24.11.2017 02:10 1,1 C 94 % 1019,5 hPa 0,0 mm W 271 0,0 km/h (0 Bft)
24.11.2017 02:15 1,2 C 94 % 1019,7 hPa 0,0 mm W 271 0,0 km/h (0 Bft)
24.11.2017 02:20 1,1 C 94 % 1019,7 hPa 0,0 mm W 272 3,2 km/h (1 Bft)
24.11.2017 02:25 1,1 C 94 % 1019,7 hPa 0,0 mm W 272 0,0 km/h (0 Bft)
24.11.2017 02:30 1,3 C 95 % 1019,6 hPa 0,0 mm W 271 0,0 km/h (0 Bft)
24.11.2017 02:35 1,4 C 94 % 1019,6 hPa 0,0 mm W 271 3,2 km/h (1 Bft)
24.11.2017 02:40 1,1 C 94 % 1019,5 hPa 0,0 mm W 271 1,6 km/h (1 Bft)
24.11.2017 02:45 0,9 C 94 % 1019,7 hPa 0,0 mm W 271 4,8 km/h (1 Bft)
24.11.2017 02:50 1,0 C 94 % 1019,6 hPa 0,0 mm W 271 4,8 km/h (1 Bft)
24.11.2017 02:55 1,0 C 94 % 1019,6 hPa 0,0 mm W 272 3,2 km/h (1 Bft)
24.11.2017 03:00 1,0 C 94 % 1019,6 hPa 0,0 mm W 271 0,0 km/h (0 Bft)
24.11.2017 03:05 1,0 C 94 % 1019,6 hPa 0,0 mm W 271 4,8 km/h (1 Bft)
24.11.2017 03:10 0,8 C 94 % 1019,6 hPa 0,0 mm W 271 1,6 km/h (1 Bft)
24.11.2017 03:15 0,4 C 94 % 1019,6 hPa 0,0 mm W 272 0,0 km/h (0 Bft)
24.11.2017 03:20 0,6 C 94 % 1019,6 hPa 0,0 mm W 271 1,6 km/h (1 Bft)
24.11.2017 03:25 0,6 C 94 % 1019,5 hPa 0,0 mm W 272 3,2 km/h (1 Bft)
24.11.2017 03:30 0,6 C 94 % 1019,5 hPa 0,0 mm W 271 1,6 km/h (1 Bft)
24.11.2017 03:35 0,7 C 95 % 1019,5 hPa 0,0 mm W 271 3,2 km/h (1 Bft)
24.11.2017 03:40 0,5 C 94 % 1019,6 hPa 0,0 mm W 272 1,6 km/h (1 Bft)
24.11.2017 03:45 0,4 C 95 % 1019,5 hPa 0,0 mm W 271 3,2 km/h (1 Bft)
24.11.2017 03:50 0,4 C 95 % 1019,6 hPa 0,0 mm W 271 3,2 km/h (1 Bft)
24.11.2017 03:55 0,4 C 95 % 1019,6 hPa 0,0 mm W 271 3,2 km/h (1 Bft)
24.11.2017 04:00 0,6 C 95 % 1019,6 hPa 0,0 mm W 271 4,8 km/h (1 Bft)
24.11.2017 04:05 0,6 C 95 % 1019,5 hPa 0,0 mm W 271 1,6 km/h (1 Bft)
24.11.2017 04:10 0,6 C 95 % 1019,5 hPa 0,0 mm W 272 1,6 km/h (1 Bft)
24.11.2017 04:15 0,3 C 95 % 1019,4 hPa 0,0 mm W 272 1,6 km/h (1 Bft)
24.11.2017 04:20 0,1 C 95 % 1019,5 hPa 0,0 mm W 271 1,6 km/h (1 Bft)
24.11.2017 04:25 0,2 C 95 % 1019,5 hPa 0,0 mm W 271 1,6 km/h (1 Bft)
24.11.2017 04:30 0,2 C 95 % 1019,4 hPa 0,0 mm W 272 0,0 km/h (0 Bft)
24.11.2017 04:35 0,3 C 95 % 1019,4 hPa 0,0 mm W 272 1,6 km/h (1 Bft)
24.11.2017 04:40 0,1 C 95 % 1019,3 hPa 0,0 mm W 272 0,0 km/h (0 Bft)
24.11.2017 04:45 0,0 C 95 % 1019,3 hPa 0,0 mm W 272 4,8 km/h (1 Bft)
24.11.2017 04:50 0,1 C 95 % 1019,3 hPa 0,0 mm W 272 4,8 km/h (1 Bft)
24.11.2017 04:55 -0,2 C 95 % 1019,4 hPa 0,0 mm W 272 4,8 km/h (1 Bft)
24.11.2017 05:00 -0,1 C 95 % 1019,3 hPa 0,0 mm W 271 4,8 km/h (1 Bft)
24.11.2017 05:05 0,0 C 95 % 1019,3 hPa 0,0 mm W 271 3,2 km/h (1 Bft)
24.11.2017 05:10 -0,1 C 95 % 1019,2 hPa 0,0 mm W 271 1,6 km/h (1 Bft)
24.11.2017 05:15 -0,1 C 95 % 1019,2 hPa 0,0 mm W 272 3,2 km/h (1 Bft)
24.11.2017 05:20 -0,3 C 95 % 1019,2 hPa 0,0 mm W 271 4,8 km/h (1 Bft)
24.11.2017 05:25 -0,5 C 95 % 1019,1 hPa 0,0 mm W 271 0,0 km/h (0 Bft)
24.11.2017 05:30 -0,5 C 95 % 1019,1 hPa 0,0 mm W 272 1,6 km/h (1 Bft)
24.11.2017 05:35 -0,4 C 95 % 1019,0 hPa 0,0 mm W 271 0,0 km/h (0 Bft)
24.11.2017 05:40 -0,7 C 95 % 1018,9 hPa 0,0 mm W 271 3,2 km/h (1 Bft)
24.11.2017 05:45 -0,7 C 95 % 1019,0 hPa 0,0 mm W 271 1,6 km/h (1 Bft)
24.11.2017 05:50 -0,4 C 95 % 1018,9 hPa 0,0 mm W 272 3,2 km/h (1 Bft)
24.11.2017 05:55 -0,3 C 95 % 1018,9 hPa 0,0 mm W 272 0,0 km/h (0 Bft)
24.11.2017 06:00 -0,4 C 95 % 1018,9 hPa 0,0 mm W 271 1,6 km/h (1 Bft)
24.11.2017 06:05 -0,4 C 95 % 1018,9 hPa 0,0 mm W 271 4,8 km/h (1 Bft)
24.11.2017 06:10 -0,4 C 95 % 1019,0 hPa 0,0 mm W 272 4,8 km/h (1 Bft)
24.11.2017 06:15 -0,2 C 95 % 1019,0 hPa 0,0 mm W 271 6,4 km/h (2 Bft)
24.11.2017 06:20 -0,4 C 95 % 1019,0 hPa 0,0 mm W 271 4,8 km/h (1 Bft)
24.11.2017 06:25 -0,4 C 95 % 1019,0 hPa 0,0 mm W 271 1,6 km/h (1 Bft)
24.11.2017 06:30 -0,4 C 95 % 1018,9 hPa 0,0 mm W 272 0,0 km/h (0 Bft)
24.11.2017 06:35 -0,7 C 95 % 1019,0 hPa 0,0 mm W 271 3,2 km/h (1 Bft)
24.11.2017 06:40 -0,7 C 95 % 1018,9 hPa 0,0 mm W 272 4,8 km/h (1 Bft)
24.11.2017 06:45 -0,5 C 95 % 1018,9 hPa 0,0 mm W 272 4,8 km/h (1 Bft)
24.11.2017 06:50 -0,4 C 95 % 1019,0 hPa 0,0 mm W 271 3,2 km/h (1 Bft)
24.11.2017 06:55 -0,4 C 95 % 1019,0 hPa 0,0 mm W 271 3,2 km/h (1 Bft)
24.11.2017 07:00 -0,6 C 95 % 1018,9 hPa 0,0 mm W 271 3,2 km/h (1 Bft)
24.11.2017 07:05 -0,7 C 95 % 1018,8 hPa 0,0 mm W 272 1,6 km/h (1 Bft)
24.11.2017 07:10 -0,7 C 95 % 1018,9 hPa 0,0 mm W 271 4,8 km/h (1 Bft)
24.11.2017 07:15 -0,7 C 95 % 1019,0 hPa 0,0 mm W 271 4,8 km/h (1 Bft)
24.11.2017 07:20 -0,8 C 95 % 1019,1 hPa 0,0 mm W 272 3,2 km/h (1 Bft)
24.11.2017 07:25 -0,7 C 95 % 1019,0 hPa 0,0 mm W 272 3,2 km/h (1 Bft)
24.11.2017 07:30 -0,5 C 95 % 1018,9 hPa 0,0 mm W 271 4,8 km/h (1 Bft)
24.11.2017 07:35 -0,6 C 95 % 1019,0 hPa 0,0 mm W 272 4,8 km/h (1 Bft)
24.11.2017 07:40 -0,7 C 95 % 1019,1 hPa 0,0 mm W 271 4,8 km/h (1 Bft)
24.11.2017 07:45 -0,7 C 95 % 1019,1 hPa 0,0 mm W 271 6,4 km/h (2 Bft)
24.11.2017 07:50 -0,3 C 95 % 1019,0 hPa 0,0 mm W 271 4,8 km/h (1 Bft)
24.11.2017 07:55 -0,1 C 95 % 1019,0 hPa 0,0 mm W 271 3,2 km/h (1 Bft)
24.11.2017 08:00 0,1 C 95 % 1019,0 hPa 0,0 mm W 271 3,2 km/h (1 Bft)
24.11.2017 08:05 -0,2 C 95 % 1019,0 hPa 0,0 mm W 272 1,6 km/h (1 Bft)
24.11.2017 08:10 0,0 C 95 % 1019,1 hPa 0,0 mm W 271 4,8 km/h (1 Bft)
24.11.2017 08:15 0,0 C 95 % 1019,2 hPa 0,0 mm W 272 3,2 km/h (1 Bft)
24.11.2017 08:20 0,1 C 95 % 1019,1 hPa 0,0 mm W 271 1,6 km/h (1 Bft)
24.11.2017 08:25 0,1 C 95 % 1019,1 hPa 0,0 mm W 271 0,0 km/h (0 Bft)
24.11.2017 08:30 0,2 C 95 % 1018,9 hPa 0,0 mm W 271 0,0 km/h (0 Bft)
24.11.2017 08:35 0,4 C 95 % 1019,0 hPa 0,0 mm W 271 0,0 km/h (0 Bft)
24.11.2017 08:40 0,3 C 95 % 1019,1 hPa 0,0 mm W 271 1,6 km/h (1 Bft)
24.11.2017 08:45 0,8 C 95 % 1019,0 hPa 0,0 mm W 271 0,0 km/h (0 Bft)
24.11.2017 08:50 1,7 C 95 % 1019,0 hPa 0,0 mm W 271 0,0 km/h (0 Bft)
24.11.2017 08:55 2,1 C 95 % 1019,0 hPa 0,0 mm W 271 0,0 km/h (0 Bft)
24.11.2017 09:00 1,8 C 94 % 1019,0 hPa 0,0 mm W 271 3,2 km/h (1 Bft)
24.11.2017 09:05 2,4 C 95 % 1019,1 hPa 0,0 mm W 271 1,6 km/h (1 Bft)
24.11.2017 09:10 2,4 C 94 % 1019,0 hPa 0,0 mm W 271 0,0 km/h (0 Bft)
24.11.2017 09:15 2,4 C 94 % 1019,0 hPa 0,0 mm W 271 0,0 km/h (0 Bft)
24.11.2017 09:20 3,9 C 94 % 1019,0 hPa 0,0 mm W 271 0,0 km/h (0 Bft)
24.11.2017 09:25 3,4 C 92 % 1019,0 hPa 0,0 mm W 271 1,6 km/h (1 Bft)
24.11.2017 09:30 3,7 C 93 % 1019,0 hPa 0,0 mm W 271 0,0 km/h (0 Bft)
24.11.2017 09:35 4,2 C 91 % 1018,8 hPa 0,0 mm W 271 0,0 km/h (0 Bft)
24.11.2017 09:40 4,4 C 90 % 1018,7 hPa 0,0 mm W 271 0,0 km/h (0 Bft)
24.11.2017 09:45 4,8 C 90 % 1018,6 hPa 0,0 mm W 271 0,0 km/h (0 Bft)
24.11.2017 09:50 5,2 C 89 % 1018,6 hPa 0,0 mm W 271 1,6 km/h (1 Bft)
24.11.2017 09:55 5,6 C 89 % 1018,7 hPa 0,0 mm W 271 1,6 km/h (1 Bft)
24.11.2017 10:00 5,7 C 87 % 1018,6 hPa 0,0 mm W 271 1,6 km/h (1 Bft)
24.11.2017 10:05 6,1 C 87 % 1018,6 hPa 0,0 mm W 271 0,0 km/h (0 Bft)
24.11.2017 10:10 6,1 C 86 % 1018,6 hPa 0,0 mm W 271 1,6 km/h (1 Bft)
24.11.2017 10:15 6,5 C 85 % 1018,6 hPa 0,0 mm W 271 0,0 km/h (0 Bft)
24.11.2017 10:20 6,7 C 85 % 1018,5 hPa 0,0 mm W 271 0,0 km/h (0 Bft)
24.11.2017 10:25 7,2 C 83 % 1018,5 hPa 0,0 mm W 271 1,6 km/h (1 Bft)
24.11.2017 10:30 7,0 C 83 % 1018,6 hPa 0,0 mm W 271 0,0 km/h (0 Bft)
24.11.2017 10:35 6,9 C 83 % 1018,5 hPa 0,0 mm W 271 3,2 km/h (1 Bft)
24.11.2017 10:40 7,2 C 84 % 1018,5 hPa 0,0 mm W 271 1,6 km/h (1 Bft)
24.11.2017 10:45 7,5 C 81 % 1018,5 hPa 0,0 mm W 271 0,0 km/h (0 Bft)
24.11.2017 10:50 7,6 C 82 % 1018,4 hPa 0,0 mm W 271 0,0 km/h (0 Bft)
24.11.2017 10:55 8,2 C 80 % 1018,4 hPa 0,0 mm W 271 1,6 km/h (1 Bft)
24.11.2017 11:00 8,6 C 79 % 1018,3 hPa 0,0 mm W 271 0,0 km/h (0 Bft)
24.11.2017 11:05 9,2 C 78 % 1018,3 hPa 0,0 mm W 271 0,0 km/h (0 Bft)
24.11.2017 11:10 9,0 C 77 % 1018,2 hPa 0,0 mm W 271 0,0 km/h (0 Bft)
24.11.2017 11:15 9,7 C 77 % 1018,0 hPa 0,0 mm W 271 1,6 km/h (1 Bft)
24.11.2017 11:20 9,2 C 75 % 1018,0 hPa 0,0 mm W 271 1,6 km/h (1 Bft)
24.11.2017 11:25 9,3 C 77 % 1017,9 hPa 0,0 mm W 271 0,0 km/h (0 Bft)
24.11.2017 11:30 10,3 C 78 % 1017,8 hPa 0,0 mm W 272 1,6 km/h (1 Bft)
24.11.2017 11:35 10,2 C 77 % 1017,7 hPa 0,0 mm W 271 0,0 km/h (0 Bft)
24.11.2017 11:40 10,1 C 75 % 1017,6 hPa 0,0 mm W 271 1,6 km/h (1 Bft)
24.11.2017 11:45 10,1 C 77 % 1017,6 hPa 0,0 mm W 272 3,2 km/h (1 Bft)
24.11.2017 11:50 10,1 C 75 % 1017,5 hPa 0,0 mm W 271 1,6 km/h (1 Bft)
24.11.2017 11:55 10,4 C 74 % 1017,5 hPa 0,0 mm W 271 4,8 km/h (1 Bft)
24.11.2017 12:00 10,7 C 74 % 1017,4 hPa 0,0 mm W 271 3,2 km/h (1 Bft)
24.11.2017 12:05 11,1 C 73 % 1017,4 hPa 0,0 mm W 271 3,2 km/h (1 Bft)
24.11.2017 12:10 10,9 C 73 % 1017,4 hPa 0,0 mm W 271 4,8 km/h (1 Bft)
24.11.2017 12:15 11,1 C 76 % 1017,4 hPa 0,0 mm W 272 4,8 km/h (1 Bft)
24.11.2017 12:20 11,2 C 73 % 1017,3 hPa 0,0 mm W 272 4,8 km/h (1 Bft)
24.11.2017 12:25 11,2 C 73 % 1017,3 hPa 0,0 mm O 88 4,8 km/h (1 Bft)
24.11.2017 12:30 11,2 C 74 % 1017,2 hPa 0,0 mm O 82 8,0 km/h (2 Bft)
24.11.2017 12:35 11,1 C 75 % 1017,2 hPa 0,0 mm O 82 4,8 km/h (1 Bft)
24.11.2017 12:40 10,9 C 73 % 1017,1 hPa 0,0 mm O 83 4,8 km/h (1 Bft)
24.11.2017 12:45 10,7 C 74 % 1017,0 hPa 0,0 mm O 84 4,8 km/h (1 Bft)
24.11.2017 12:50 11,1 C 71 % 1017,0 hPa 0,0 mm O 84 4,8 km/h (1 Bft)
24.11.2017 12:55 11,3 C 74 % 1016,9 hPa 0,0 mm O 84 4,8 km/h (1 Bft)
24.11.2017 13:00 11,7 C 75 % 1016,9 hPa 0,0 mm O 84 4,8 km/h (1 Bft)
24.11.2017 13:05 11,7 C 75 % 1016,8 hPa 0,0 mm O 84 4,8 km/h (1 Bft)
24.11.2017 13:10 11,4 C 74 % 1016,9 hPa 0,0 mm O 84 4,8 km/h (1 Bft)
24.11.2017 13:15 11,6 C 73 % 1016,8 hPa 0,0 mm O 84 4,8 km/h (1 Bft)
24.11.2017 13:20 11,8 C 74 % 1016,7 hPa 0,0 mm O 84 3,2 km/h (1 Bft)
24.11.2017 13:25 12,1 C 75 % 1016,7 hPa 0,0 mm O 84 3,2 km/h (1 Bft)
24.11.2017 13:30 11,8 C 73 % 1016,7 hPa 0,0 mm O 84 4,8 km/h (1 Bft)
24.11.2017 13:35 11,7 C 74 % 1016,6 hPa 0,0 mm O 84 3,2 km/h (1 Bft)
24.11.2017 13:40 11,6 C 76 % 1016,5 hPa 0,0 mm O 84 3,2 km/h (1 Bft)
24.11.2017 13:45 11,4 C 75 % 1016,4 hPa 0,0 mm O 84 4,8 km/h (1 Bft)
24.11.2017 13:50 11,3 C 74 % 1016,3 hPa 0,0 mm O 85 4,8 km/h (1 Bft)
24.11.2017 13:55 11,4 C 74 % 1016,2 hPa 0,0 mm O 85 1,6 km/h (1 Bft)
24.11.2017 14:00 11,5 C 75 % 1016,3 hPa 0,0 mm O 85 1,6 km/h (1 Bft)
24.11.2017 14:05 11,4 C 76 % 1016,1 hPa 0,0 mm O 85 3,2 km/h (1 Bft)
24.11.2017 14:10 11,2 C 78 % 1016,1 hPa 0,0 mm O 85 4,8 km/h (1 Bft)
24.11.2017 14:15 11,2 C 77 % 1016,1 hPa 0,0 mm O-SO 113 4,8 km/h (1 Bft)
24.11.2017 14:20 11,3 C 76 % 1016,1 hPa 0,0 mm O-SO 113 3,2 km/h (1 Bft)
24.11.2017 14:25 11,3 C 76 % 1016,1 hPa 0,0 mm O-SO 113 3,2 km/h (1 Bft)
24.11.2017 14:30 11,3 C 75 % 1016,1 hPa 0,0 mm O-SO 113 1,6 km/h (1 Bft)
24.11.2017 14:35 11,2 C 75 % 1016,1 hPa 0,0 mm O-SO 113 1,6 km/h (1 Bft)
24.11.2017 14:40 11,0 C 78 % 1016,1 hPa 0,0 mm O-SO 113 0,0 km/h (0 Bft)
24.11.2017 14:45 10,8 C 81 % 1015,9 hPa 0,0 mm O-SO 113 0,0 km/h (0 Bft)
24.11.2017 14:50 10,8 C 79 % 1015,9 hPa 0,0 mm O-SO 113 0,0 km/h (0 Bft)
24.11.2017 14:55 10,6 C 78 % 1016,0 hPa 0,0 mm O-SO 113 1,6 km/h (1 Bft)
24.11.2017 15:00 10,3 C 77 % 1016,0 hPa 0,0 mm O-SO 113 1,6 km/h (1 Bft)
24.11.2017 15:05 10,0 C 78 % 1016,1 hPa 0,0 mm O-SO 113 0,0 km/h (0 Bft)
24.11.2017 15:10 9,8 C 78 % 1016,1 hPa 0,0 mm O-SO 113 0,0 km/h (0 Bft)
24.11.2017 15:15 9,6 C 78 % 1016,2 hPa 0,0 mm O-SO 113 0,0 km/h (0 Bft)
24.11.2017 15:20 9,3 C 79 % 1016,2 hPa 0,0 mm O-SO 113 1,6 km/h (1 Bft)
24.11.2017 15:25 9,2 C 80 % 1016,3 hPa 0,0 mm O-SO 113 0,0 km/h (0 Bft)
24.11.2017 15:30 8,8 C 82 % 1016,3 hPa 0,0 mm O-SO 113 0,0 km/h (0 Bft)
24.11.2017 15:35 8,5 C 82 % 1016,3 hPa 0,0 mm O-SO 113 3,2 km/h (1 Bft)
24.11.2017 15:40 8,3 C 83 % 1016,3 hPa 0,0 mm O-SO 113 3,2 km/h (1 Bft)
24.11.2017 15:45 8,2 C 83 % 1016,3 hPa 0,0 mm O-SO 113 0,0 km/h (0 Bft)
24.11.2017 15:50 8,1 C 83 % 1016,3 hPa 0,0 mm O-SO 113 0,0 km/h (0 Bft)
24.11.2017 15:55 7,8 C 83 % 1016,3 hPa 0,0 mm O-SO 113 0,0 km/h (0 Bft)
24.11.2017 16:00 7,5 C 84 % 1016,5 hPa 0,0 mm O-SO 113 0,0 km/h (0 Bft)
24.11.2017 16:05 6,9 C 84 % 1016,5 hPa 0,0 mm W 280 4,8 km/h (1 Bft)
24.11.2017 16:10 6,8 C 85 % 1016,6 hPa 0,0 mm W 280 4,8 km/h (1 Bft)
24.11.2017 16:15 6,6 C 85 % 1016,6 hPa 0,0 mm W 280 3,2 km/h (1 Bft)
24.11.2017 16:20 6,7 C 86 % 1016,5 hPa 0,0 mm W 280 1,6 km/h (1 Bft)
24.11.2017 16:25 6,7 C 86 % 1016,6 hPa 0,0 mm W 280 0,0 km/h (0 Bft)
24.11.2017 16:30 6,2 C 86 % 1016,6 hPa 0,0 mm W 280 1,6 km/h (1 Bft)
24.11.2017 16:35 5,9 C 87 % 1016,6 hPa 0,0 mm W 280 3,2 km/h (1 Bft)
24.11.2017 16:40 5,8 C 87 % 1016,6 hPa 0,0 mm W 280 3,2 km/h (1 Bft)
24.11.2017 16:45 5,8 C 88 % 1016,7 hPa 0,0 mm W 280 3,2 km/h (1 Bft)
24.11.2017 16:50 5,8 C 87 % 1016,6 hPa 0,0 mm W 280 3,2 km/h (1 Bft)
24.11.2017 16:55 5,4 C 87 % 1016,7 hPa 0,0 mm W 280 1,6 km/h (1 Bft)
24.11.2017 17:00 5,1 C 88 % 1016,8 hPa 0,0 mm W 280 3,2 km/h (1 Bft)
24.11.2017 17:05 4,9 C 89 % 1016,8 hPa 0,0 mm W 265 6,4 km/h (2 Bft)
24.11.2017 17:10 5,1 C 90 % 1016,8 hPa 0,0 mm W 277 8,0 km/h (2 Bft)
24.11.2017 17:15 5,2 C 90 % 1016,7 hPa 0,0 mm W 277 3,2 km/h (1 Bft)
24.11.2017 17:20 5,3 C 90 % 1016,7 hPa 0,0 mm W 277 1,6 km/h (1 Bft)
24.11.2017 17:25 5,3 C 89 % 1016,7 hPa 0,0 mm W 277 1,6 km/h (1 Bft)
24.11.2017 17:30 4,9 C 88 % 1016,7 hPa 0,0 mm W 277 4,8 km/h (1 Bft)
24.11.2017 17:35 5,0 C 90 % 1016,7 hPa 0,0 mm W 277 8,0 km/h (2 Bft)
24.11.2017 17:40 4,7 C 89 % 1016,8 hPa 0,0 mm W 277 3,2 km/h (1 Bft)
24.11.2017 17:45 4,8 C 90 % 1016,9 hPa 0,0 mm W 277 4,8 km/h (1 Bft)
24.11.2017 17:50 4,6 C 89 % 1016,8 hPa 0,0 mm W 277 1,6 km/h (1 Bft)
24.11.2017 17:55 4,4 C 90 % 1016,9 hPa 0,0 mm W 277 1,6 km/h (1 Bft)
24.11.2017 18:00 4,6 C 90 % 1016,9 hPa 0,0 mm W 277 3,2 km/h (1 Bft)
24.11.2017 18:05 4,6 C 90 % 1017,0 hPa 0,0 mm W 277 4,8 km/h (1 Bft)
24.11.2017 18:10 4,6 C 90 % 1017,1 hPa 0,0 mm W 277 6,4 km/h (2 Bft)
24.11.2017 18:15 4,7 C 90 % 1017,1 hPa 0,0 mm W 268 8,0 km/h (2 Bft)
24.11.2017 18:20 5,1 C 90 % 1017,1 hPa 0,0 mm W 259 9,7 km/h (2 Bft)
24.11.2017 18:25 5,1 C 89 % 1017,0 hPa 0,0 mm W 259 4,8 km/h (1 Bft)
24.11.2017 18:30 5,2 C 89 % 1017,0 hPa 0,0 mm W 259 4,8 km/h (1 Bft)
24.11.2017 18:35 5,2 C 88 % 1017,0 hPa 0,0 mm W 259 0,0 km/h (0 Bft)
24.11.2017 18:40 4,6 C 88 % 1017,1 hPa 0,0 mm W 259 3,2 km/h (1 Bft)
24.11.2017 18:45 4,5 C 89 % 1017,1 hPa 0,0 mm W 259 4,8 km/h (1 Bft)
24.11.2017 18:50 4,6 C 90 % 1017,1 hPa 0,0 mm W 259 4,8 km/h (1 Bft)
24.11.2017 18:55 4,7 C 89 % 1017,1 hPa 0,0 mm W 259 0,0 km/h (0 Bft)
24.11.2017 19:00 4,7 C 89 % 1017,1 hPa 0,0 mm W 259 3,2 km/h (1 Bft)
24.11.2017 19:05 4,8 C 89 % 1017,2 hPa 0,0 mm W 259 4,8 km/h (1 Bft)
24.11.2017 19:10 4,9 C 89 % 1017,1 hPa 0,0 mm W 259 4,8 km/h (1 Bft)
24.11.2017 19:15 4,6 C 88 % 1017,1 hPa 0,0 mm W 259 1,6 km/h (1 Bft)
24.11.2017 19:20 4,5 C 89 % 1017,1 hPa 0,0 mm W 259 0,0 km/h (0 Bft)
24.11.2017 19:25 4,4 C 90 % 1017,1 hPa 0,0 mm W 259 0,0 km/h (0 Bft)
24.11.2017 19:30 4,0 C 90 % 1017,1 hPa 0,0 mm W 259 1,6 km/h (1 Bft)
24.11.2017 19:35 4,0 C 91 % 1017,2 hPa 0,0 mm W 259 0,0 km/h (0 Bft)
24.11.2017 19:40 3,7 C 91 % 1017,1 hPa 0,0 mm W 259 0,0 km/h (0 Bft)
24.11.2017 19:45 3,7 C 92 % 1017,1 hPa 0,0 mm W 259 0,0 km/h (0 Bft)
24.11.2017 19:50 3,8 C 92 % 1017,0 hPa 0,0 mm W 259 0,0 km/h (0 Bft)
24.11.2017 19:55 3,8 C 92 % 1017,2 hPa 0,0 mm W 259 1,6 km/h (1 Bft)
24.11.2017 20:00 3,8 C 92 % 1017,2 hPa 0,0 mm W 259 3,2 km/h (1 Bft)
24.11.2017 20:05 3,8 C 92 % 1017,2 hPa 0,0 mm W 259 3,2 km/h (1 Bft)
24.11.2017 20:10 3,8 C 92 % 1017,1 hPa 0,0 mm W 259 4,8 km/h (1 Bft)
24.11.2017 20:15 3,6 C 91 % 1017,0 hPa 0,0 mm W 259 3,2 km/h (1 Bft)
24.11.2017 20:20 3,7 C 92 % 1017,0 hPa 0,0 mm W 259 4,8 km/h (1 Bft)
24.11.2017 20:25 3,9 C 92 % 1017,0 hPa 0,0 mm W 259 3,2 km/h (1 Bft)
24.11.2017 20:30 3,8 C 92 % 1017,0 hPa 0,0 mm W 259 3,2 km/h (1 Bft)
24.11.2017 20:35 3,7 C 92 % 1017,1 hPa 0,0 mm W 259 4,8 km/h (1 Bft)
24.11.2017 20:40 3,8 C 92 % 1017,1 hPa 0,0 mm W 259 4,8 km/h (1 Bft)
24.11.2017 20:45 3,7 C 92 % 1017,1 hPa 0,0 mm W 259 3,2 km/h (1 Bft)
24.11.2017 20:50 3,7 C 92 % 1017,1 hPa 0,0 mm W 259 6,4 km/h (2 Bft)
24.11.2017 20:55 4,0 C 92 % 1017,1 hPa 0,0 mm W 259 6,4 km/h (2 Bft)
24.11.2017 21:00 4,2 C 92 % 1017,2 hPa 0,0 mm W 259 3,2 km/h (1 Bft)
24.11.2017 21:05 4,3 C 92 % 1017,1 hPa 0,0 mm W 259 3,2 km/h (1 Bft)
24.11.2017 21:10 4,3 C 91 % 1017,1 hPa 0,0 mm W 259 0,0 km/h (0 Bft)
24.11.2017 21:15 4,2 C 91 % 1017,1 hPa 0,0 mm W 259 0,0 km/h (0 Bft)
24.11.2017 21:20 4,1 C 91 % 1017,0 hPa 0,0 mm W 259 4,8 km/h (1 Bft)
24.11.2017 21:25 4,1 C 92 % 1016,9 hPa 0,0 mm W 259 4,8 km/h (1 Bft)
24.11.2017 21:30 4,1 C 91 % 1016,9 hPa 0,0 mm W 259 3,2 km/h (1 Bft)
24.11.2017 21:35 4,1 C 92 % 1016,9 hPa 0,0 mm W 259 0,0 km/h (0 Bft)
24.11.2017 21:40 4,2 C 92 % 1016,8 hPa 0,0 mm W 259 1,6 km/h (1 Bft)
24.11.2017 21:45 3,8 C 91 % 1016,8 hPa 0,0 mm W 259 0,0 km/h (0 Bft)
24.11.2017 21:50 3,7 C 92 % 1016,8 hPa 0,0 mm W 259 0,0 km/h (0 Bft)
24.11.2017 21:55 3,6 C 92 % 1016,9 hPa 0,0 mm W 259 0,0 km/h (0 Bft)
24.11.2017 22:00 3,6 C 92 % 1017,0 hPa 0,0 mm W 259 0,0 km/h (0 Bft)
24.11.2017 22:05 3,4 C 92 % 1017,0 hPa 0,0 mm W 259 0,0 km/h (0 Bft)
24.11.2017 22:10 3,6 C 93 % 1016,9 hPa 0,0 mm W 259 0,0 km/h (0 Bft)
24.11.2017 22:15 3,6 C 92 % 1016,9 hPa 0,0 mm W 259 0,0 km/h (0 Bft)
24.11.2017 22:20 3,6 C 93 % 1016,8 hPa 0,0 mm W 259 4,8 km/h (1 Bft)
24.11.2017 22:25 3,7 C 93 % 1016,8 hPa 0,0 mm W 259 4,8 km/h (1 Bft)
24.11.2017 22:30 3,5 C 92 % 1016,8 hPa 0,0 mm W 259 1,6 km/h (1 Bft)
24.11.2017 22:35 3,4 C 93 % 1016,8 hPa 0,0 mm W 259 3,2 km/h (1 Bft)
24.11.2017 22:40 3,6 C 93 % 1016,9 hPa 0,0 mm W 259 3,2 km/h (1 Bft)
24.11.2017 22:45 3,6 C 93 % 1016,9 hPa 0,0 mm W 259 3,2 km/h (1 Bft)
24.11.2017 22:50 3,3 C 92 % 1016,8 hPa 0,0 mm W 259 0,0 km/h (0 Bft)
24.11.2017 22:55 2,9 C 92 % 1016,8 hPa 0,0 mm W 259 0,0 km/h (0 Bft)
24.11.2017 23:00 3,0 C 93 % 1016,8 hPa 0,0 mm W 259 1,6 km/h (1 Bft)
24.11.2017 23:05 2,8 C 93 % 1016,9 hPa 0,0 mm W 259 1,6 km/h (1 Bft)
24.11.2017 23:10 2,8 C 93 % 1016,9 hPa 0,0 mm W 259 1,6 km/h (1 Bft)
24.11.2017 23:15 2,8 C 93 % 1016,9 hPa 0,0 mm W 259 0,0 km/h (0 Bft)
24.11.2017 23:20 2,8 C 93 % 1016,9 hPa 0,0 mm W 259 0,0 km/h (0 Bft)
24.11.2017 23:25 2,9 C 93 % 1016,8 hPa 0,0 mm W 259 0,0 km/h (0 Bft)
24.11.2017 23:30 2,8 C 93 % 1016,8 hPa 0,0 mm W 259 0,0 km/h (0 Bft)
24.11.2017 23:35 2,5 C 93 % 1016,7 hPa 0,0 mm W 259 0,0 km/h (0 Bft)
24.11.2017 23:40 2,7 C 94 % 1016,7 hPa 0,0 mm W 259 4,8 km/h (1 Bft)
24.11.2017 23:45 2,4 C 93 % 1016,8 hPa 0,0 mm W 259 3,2 km/h (1 Bft)
24.11.2017 23:50 2,1 C 93 % 1016,7 hPa 0,0 mm W 259 3,2 km/h (1 Bft)
24.11.2017 23:55 2,3 C 94 % 1016,7 hPa 0,0 mm W 259 4,8 km/h (1 Bft)
_ Min-Zeit 07:10 12:50 14:45 - - - 00:35
Minimum _ -0,8 C 71 % 1015,9 hPa - - - 0,0 km/h (0 Bft)
_ Max-Zeit 13:25 02:30 00:10 00:00 - - 18:20
Maximum _ 12,2 C 95 % 1019,7 hPa 0,0 mm - - 9,7 km/h
W (2 Bft)
Durchschnitt _ 4,2 C 89 % 1017,9 hPa #0,0 mm W - 2,5 km/h (1 Bft)